CUSat

operational
NORAD ID: 39266 Int'l Des: 2013-055 Owner: CORN Country: US
LEOPOLAR

CUSatについて

説明を読み込み中...

リアルタイム位置

3D地球を読み込み中...

次回通過

高度履歴

Altitude vs Time

uPlot chart will show altitude changes over time

軌道要素

1 39266U 13055B 26061.14073339 .00161624 67875-5 67448-3 0 9995
2 39266 80.9347 124.4084 0144700 196.7954 162.8490 15.71251567656040
Epoch: Mar 2, 2026 • Age: 29 hours

現在のステータス

高度 408.0 km
速度 7.65 km/s
衛星直下点 -56.23°S, 128.36°W
打ち上げ日 Sep 29, 2013
運用期間 12.4 years
タイプ other

技術仕様

分類 Payload
質量 23.00 kg
乾燥質量 23.00 kg
総質量 23.00 kg
長さ 0.26 m
直径 0.46 m
スパン 0.46 m
形状 Hex Cyl
製造者 CORN
バスタイプ CUSAT
フェーズステータス In Orbit
所有者/国 CORN/US

大規模コンステレーション

Loading constellations...